Date String (YYYY-MM-DD hh:mm:ss) UTC,Instrument flags,absolute air pressure of the measurement (hPa),sample flow rate (lpm),inlet stack bypass flow (lpm),air temperature of the measurement (°C),ambient temperature measured by the external sensor (°C),aerosol sample conditioner tube jacket temperature (°C),OPC LED temperature (°C),internal box temperature (°C),relative humidity of the measurement (%),span deviation,mass concentration of particles derived from Lorenz-Mie calculation of OPC scattering (μg/m³),mass concentration of particles derived from Lorenz-Mie calculation of OPC scattering (μg/m³),mass concentration of particles derived from Lorenz-Mie calculation of OPC scattering (μg/m³)
DateTimeUTC,F1_M11,P_M11,Q1_M11,Q2_M11,T1_M11,T2_M11,T3_M11,T4_M11,T5_M11,U1_M11,ZSPAN_M11,X0_M11,X2_M11,X1_M11
2023-10-24 12:00:00,SystemResetWarning,0825.7,5.01,000.00,028.7,027.2,000.0,037.2,030.3,16.3,0000.0,0016.40,0005.43,0004.10
2023-10-24 12:01:00,SystemResetWarning,0825.8,5.01,000.00,028.7,027.2,000.0,037.1,030.3,16.3,0000.0,0016.10,0005.43,0004.10
2023-10-24 12:02:00,SystemResetWarning,0825.8,5.00,000.00,028.7,027.2,000.0,037.1,030.3,16.7,0000.0,0016.14,0005.43,0004.11
2023-10-24 12:03:00,SystemResetWarning,0825.8,5.00,000.00,028.7,027.2,000.0,037.1,030.3,16.6,0000.0,0016.06,0005.47,0004.12
2023-10-24 12:04:00,SystemResetWarning,0825.7,5.00,000.00,028.7,027.2,000.0,037.1,030.3,17.7,0000.0,0015.84,0005.46,0004.10
2023-10-24 12:05:00,SystemResetWarning,0825.7,5.00,000.00,028.7,027.2,000.0,037.1,030.3,17.7,0000.0,0015.83,0005.45,0004.09
2023-10-24 12:06:00,SystemResetWarning,0825.7,5.00,000.00,028.7,027.2,000.0,037.2,030.3,18.0,0000.0,0016.58,0005.45,0004.08
2023-10-24 12:07:00,SystemResetWarning,0825.7,5.00,000.00,028.7,027.2,000.0,037.1,030.3,18.3,0000.0,0016.19,0005.49,0004.08
2023-10-24 12:08:00,SystemResetWarning,0825.6,5.00,000.00,028.7,027.2,000.0,037.1,030.3,18.1,0000.0,0015.63,0005.48,0004.08
2023-10-24 12:09:00,SystemResetWarning,0825.6,5.00,000.00,028.7,027.2,000.0,037.1,030.3,17.8,0000.0,0015.50,0005.51,0004.08
2023-10-24 12:10:00,SystemResetWarning,0825.6,5.00,000.00,028.7,027.2,000.0,037.1,030.3,17.6,0000.0,0015.44,0005.48,0004.07
2023-10-24 12:11:00,SystemResetWarning,0825.6,4.99,000.00,028.7,027.2,000.0,037.1,030.3,17.7,0000.0,0015.55,0005.41,0004.06
2023-10-24 12:12:00,SystemResetWarning,0825.6,5.00,000.00,028.7,027.2,000.0,037.1,030.2,17.9,0000.0,0015.23,0005.41,0004.03
2023-10-24 12:13:00,SystemResetWarning,0825.6,5.00,000.00,028.7,027.1,000.0,037.1,030.2,18.1,0000.0,0015.15,0005.46,0004.04
2023-10-24 12:14:00,SystemResetWarning,0825.6,5.00,000.00,028.7,027.1,000.0,037.1,030.2,18.2,0000.0,0015.20,0005.39,0004.03
2023-10-24 12:15:00,SystemResetWarning,0825.6,5.00,000.00,028.7,027.1,000.0,037.1,030.2,18.6,0000.0,0016.22,0005.36,0004.03
2023-10-24 12:16:00,SystemResetWarning,0825.5,5.00,000.00,028.7,027.1,000.0,037.1,030.3,18.7,0000.0,0016.94,0005.34,0004.02
2023-10-24 12:17:00,SystemResetWarning,0825.6,4.99,000.00,028.7,027.1,000.0,037.1,030.3,18.6,0000.0,0017.43,0005.39,0004.02
2023-10-24 12:18:00,SystemResetWarning,0825.6,5.00,000.00,028.7,027.1,000.0,037.1,030.2,18.8,0000.0,0017.51,0005.41,0004.02
2023-10-24 12:19:00,SystemResetWarning,0825.6,4.99,000.00,028.7,027.1,000.0,037.1,030.2,18.6,0000.0,0017.33,0005.40,0004.02
2023-10-24 12:20:00,SystemResetWarning,0825.6,5.01,000.00,028.6,027.1,000.0,037.1,030.2,18.4,0000.0,0017.10,0005.38,0004.00
2023-10-24 12:21:00,SystemResetWarning,0825.6,5.00,000.00,028.6,027.1,000.0,037.1,030.2,18.5,0000.0,0017.65,0005.44,0003.99
2023-10-24 12:22:00,SystemResetWarning,0825.6,5.00,000.00,028.6,027.1,000.0,037.1,030.2,18.8,0000.0,0017.82,0005.50,0003.99
2023-10-24 12:23:00,SystemResetWarning,0825.6,5.01,000.00,028.6,027.1,000.0,037.1,030.3,18.9,0000.0,0018.40,0005.51,0004.01
2023-10-24 12:24:00,SystemResetWarning,0825.5,5.00,000.00,028.6,027.1,000.0,037.1,030.2,19.0,0000.0,0018.59,0005.47,0004.01
2023-10-24 12:25:00,SystemResetWarning,0825.6,5.00,000.00,028.6,027.1,000.0,037.1,030.3,18.8,0000.0,0018.66,0005.42,0003.99
2023-10-24 12:26:00,SystemResetWarning,0825.5,5.00,000.00,028.6,027.1,000.0,037.1,030.2,18.9,0000.0,0017.78,0005.42,0004.00
2023-10-24 12:27:00,SystemResetWarning,0825.6,5.00,000.00,028.6,027.1,000.0,037.1,030.2,18.5,0000.0,0017.07,0005.43,0004.01
2023-10-24 12:28:00,SystemResetWarning,0825.6,5.00,000.00,028.6,027.1,000.0,037.1,030.2,18.6,0000.0,0015.62,0005.43,0004.01
2023-10-24 12:29:00,SystemResetWarning,0825.6,4.99,000.00,028.6,027.1,000.0,037.1,030.3,18.9,0000.0,0015.33,0005.47,0004.03
2023-10-24 12:30:00,SystemResetWarning,0825.6,5.00,000.00,028.6,027.1,000.0,037.1,030.2,17.6,0000.0,0015.51,0005.47,0004.04
2023-10-24 12:31:00,SystemResetWarning,0825.6,5.00,000.00,028.6,027.1,000.0,037.1,030.2,16.0,0000.0,0014.76,0005.40,0004.04
2023-10-24 12:32:00,SystemResetWarning,0825.6,5.00,000.00,028.6,027.1,000.0,037.1,030.2,15.5,0000.0,0014.20,0005.42,0004.06
2023-10-24 12:33:00,SystemResetWarning,0825.6,5.00,000.00,028.6,027.0,000.0,037.1,030.2,15.4,0000.0,0014.11,0005.45,0004.06
2023-10-24 12:34:00,SystemResetWarning,0825.6,5.00,000.00,028.6,027.0,000.0,037.1,030.2,15.7,0000.0,0014.74,0005.50,0004.06
2023-10-24 12:35:00,SystemResetWarning,0825.6,5.00,000.00,028.6,027.0,000.0,037.1,030.2,15.6,0000.0,0014.94,0005.52,0004.06
2023-10-24 12:36:00,SystemResetWarning,0825.6,5.00,000.00,028.6,027.0,000.0,037.1,030.2,15.8,0000.0,0014.96,0005.60,0004.08
2023-10-24 12:37:00,SystemResetWarning,0825.6,5.00,000.00,028.6,027.0,000.0,037.1,030.2,15.8,0000.0,0015.07,0005.60,0004.08
2023-10-24 12:38:00,SystemResetWarning,0825.6,5.00,000.00,028.6,027.0,000.0,037.1,030.2,15.6,0000.0,0015.03,0005.58,0004.07
2023-10-24 12:39:00,SystemResetWarning,0825.6,5.00,000.00,028.6,027.0,000.0,037.1,030.2,14.6,0000.0,0014.93,0005.53,0004.06
2023-10-24 12:40:00,SystemResetWarning,0825.6,5.00,000.00,028.6,027.0,000.0,037.1,030.2,14.6,0000.0,0014.93,0005.53,0004.06
2023-10-24 12:41:00,SystemResetWarning,0825.6,5.00,000.00,028.6,026.9,000.0,037.1,030.2,14.5,0000.0,0015.83,0005.55,0004.05
2023-10-24 12:42:00,SystemResetWarning,0825.6,5.00,000.00,028.6,026.9,000.0,037.0,030.2,14.7,0000.0,0016.57,0005.61,0004.05
2023-10-24 12:43:00,SystemResetWarning,0825.6,5.00,000.00,028.6,026.9,000.0,037.0,030.2,15.0,0000.0,0017.29,0005.61,0004.03
2023-10-24 12:44:00,SystemResetWarning,0825.6,5.00,000.00,028.5,026.9,000.0,037.0,030.2,13.9,0000.0,0017.17,0005.57,0004.02
2023-10-24 12:45:00,SystemResetWarning,0825.7,5.00,000.00,028.5,026.9,000.0,037.0,030.1,13.6,0000.0,0016.17,0005.50,0004.02
2023-10-24 12:46:00,SystemResetWarning,0825.7,5.00,000.00,028.5,027.0,000.0,037.0,030.1,13.9,0000.0,0016.52,0005.48,0004.02
2023-10-24 12:47:00,SystemResetWarning,0825.7,5.00,000.00,028.5,027.0,000.0,037.0,030.1,14.6,0000.0,0016.63,0005.50,0004.01
2023-10-24 12:48:00,SystemResetWarning,0825.7,5.00,000.00,028.5,027.0,000.0,037.0,030.1,15.2,0000.0,0017.82,0005.59,0004.00
2023-10-24 12:49:00,SystemResetWarning,0825.6,5.00,000.00,028.5,026.9,000.0,037.0,030.0,14.8,0000.0,0018.29,0005.65,0004.02
2023-10-24 12:50:00,SystemResetWarning,0825.6,5.00,000.00,028.5,026.9,000.0,037.0,030.0,15.1,0000.0,0018.73,0005.74,0004.03
2023-10-24 12:51:00,SystemResetWarning,0825.7,5.00,000.00,028.5,026.9,000.0,037.0,030.0,14.9,0000.0,0019.19,0005.73,0004.03
2023-10-24 12:52:00,SystemResetWarning,0825.7,5.00,000.00,028.4,026.8,000.0,037.0,029.9,14.4,0000.0,0019.00,0005.75,0004.04
2023-10-24 12:53:00,SystemResetWarning,0825.7,5.00,000.00,028.4,026.8,000.0,037.0,030.0,13.3,0000.0,0018.56,0005.78,0004.04
2023-10-24 12:54:00,SystemResetWarning,0825.6,5.00,000.00,028.4,026.8,000.0,036.9,030.0,13.4,0000.0,0017.90,0005.79,0004.04
2023-10-24 12:55:00,SystemResetWarning,0825.7,5.00,000.00,028.4,026.8,000.0,036.9,030.0,13.5,0000.0,0019.38,0005.86,0004.05
2023-10-24 12:56:00,SystemResetWarning,0825.7,5.00,000.00,028.4,026.8,000.0,036.9,030.0,13.2,0000.0,0020.12,0005.91,0004.04
2023-10-24 12:57:00,SystemResetWarning,0825.7,5.00,000.00,028.4,026.8,000.0,036.9,029.9,13.3,0000.0,0019.53,0005.98,0004.03
2023-10-24 12:58:00,SystemResetWarning,0825.7,5.00,000.00,028.4,026.8,000.0,036.9,029.9,13.3,0000.0,0019.22,0005.96,0004.03
2023-10-24 12:59:00,SystemResetWarning,0825.7,5.00,000.00,028.4,026.8,000.0,036.9,029.9,13.3,0000.0,0018.46,0005.96,0004.04
